[[{"header":{"parameterUnit":"m.s-1","parameterCategory":1,"la1":30.2992,"la2":30.254,"lo1":-89.0895,"lo2":-89.0443,"dy":0.0025,"dx":0.0025,"nx":19,"ny":19,"refTime":"2026-05-19T09:00:00:Z","depth":0,"parameterNumber":2,"parameterNumberName":"U-component_of_WINDS"},"data":[0,0,0,-3.0238,-3.024,-3.0332,-3.0333,-3.0459,-3.046,0,0,0,0,0,0,0,0,0,0,0,-3.0215,-3.0216,-3.0237,-3.024,-3.0332,-3.0333,-3.0459,-3.046,0,0,0,0,0,0,0,0,0,0,0,-3.0215,-3.0216,-3.0217,-3.024,-3.0332,-3.0333,-3.0459,-3.0386,0,0,0,0,0,0,0,0,0,0,-3.0294,-3.0279,-3.0216,-3.0218,-3.0241,-3.0332,-3.0333,-3.0382,-3.039,-3.0421,0,-3.045,0,-3.0457,-3.0469,-3.047,0,0,0,-3.0236,-3.0272,-3.0293,-3.0218,-3.0242,-3.0332,-3.0289,-3.0387,-3.0396,-3.0432,-3.0451,-3.0456,-3.0459,-3.047,-3.0471,-3.0662,-3.0663,0,0,-3.023,-3.0235,-3.0286,-3.0299,-3.0286,-3.0286,-3.0292,-3.0392,-3.0414,-3.0452,-3.0459,-3.0461,-3.0471,-3.0472,-3.0661,-3.0662,0,0,0,-3.0219,-3.0231,-3.0249,-3.0294,-3.031,-3.0289,-3.0296,-3.0409,-3.0415,-3.046,-3.0463,-3.0472,-3.0474,-3.066,-3.0661,-3.0719,0,0,0,-3.0215,-3.0224,-3.0247,-3.025,-3.0309,-3.0361,-3.0311,-3.0408,-3.0419,-3.0462,-3.0472,-3.0475,-3.0659,-3.0661,-3.0715,-3.0745,0,0,0,-3.0207,-3.0223,-3.0239,-3.0251,-3.0291,-3.0359,-3.037,-3.041,-3.0421,-3.047,-3.0475,-3.0658,-3.066,-3.0711,-3.0739,-3.0796,0,0,0,-3.02,-3.0288,-3.024,-3.034,-3.029,-3.0395,-3.037,-3.0447,-3.0496,-3.0473,-3.0659,-3.0661,-3.071,-3.0735,-3.0792,-3.0844,-3.0866,0,0,-3.0314,-3.0302,-3.0361,-3.032,-3.0434,-3.038,-3.0503,-3.0544,-3.0545,-3.0623,-3.0627,-3.0716,-3.0738,-3.0795,-3.0992,-3.101,0,0,0,-3.0398,-3.044,-3.0469,-3.0517,-3.0551,-3.0582,-3.0603,-3.0619,-3.0685,-3.0586,-3.0753,-3.0766,-3.0799,-3.0823,-3.0838,-3.0866,-3.0673,-3.0673,-3.0673,-3.0564,-3.0561,-3.0657,-3.0665,-3.0711,-3.0733,-3.077,-3.0794,-3.0777,-3.0817,-3.0839,-3.096,-3.0988,-3.1,-3.1029,-3.0868,-3.0868,-3.0868,-3.0868,-3.0729,-3.0787,-3.0764,-3.0848,-3.0844,-3.0915,-3.094,-3.0926,-3.0991,-3.0942,-3.0971,-3.0917,-3.1019,-3.1044,-3.0873,-3.0872,-3.0871,-3.0871,-3.0871,-3.0836,-3.0863,-3.0881,-3.0949,-3.1003,-3.1008,-3.1072,-3.1066,-3.1061,-3.109,-3.1113,-3.1112,-3.1109,-3.1102,-3.1102,-3.1103,-3.1103,-3.1103,-3.1103,-3.0939,-3.0958,-3.1012,-3.1056,-3.1086,-3.1125,-3.1149,-3.1178,-3.1208,-3.1199,-3.1199,-3.1177,-3.1031,-3.0993,-3.111,-3.1109,-3.1108,-3.1107,-3.1107,-3.1105,-3.1067,-3.1152,-3.1182,-3.1233,-3.1286,-3.1279,-3.1338,-3.1362,-3.1393,-3.1367,-3.1259,-3.1247,-3.1235,-3.1203,-3.1367,-3.1367,-3.1367,-3.1367,-3.1195,-3.1188,-3.1273,-3.1322,-3.1368,-3.1371,-3.1466,-3.1486,-3.15,-3.1514,-3.149,-3.1449,-3.1437,-3.1431,-3.1415,-3.1385,-3.1592,-3.1592,-3.1592,-3.1296,-3.1294,-3.1376,-3.139,-3.143,-3.1465,-3.1554,-3.161,-3.1618,-3.1601,-3.1525,-3.1515,-3.1448,-3.1427,-3.1406,-3.1381,-3.1327,0,0]},{"header":{"parameterUnit":"m.s-1","parameterCategory":1,"la1":30.2992,"la2":30.254,"lo1":-89.0895,"lo2":-89.0443,"dy":0.0025,"dx":0.0025,"nx":19,"ny":19,"refTime":"2026-05-19T09:00:00:Z","depth":0,"parameterNumber":3,"parameterNumberName":"V-component_of_WINDS"},"data":[0,0,0,1.5274,1.5275,1.533,1.533,1.54,1.5401,0,0,0,0,0,0,0,0,0,0,0,1.5257,1.5258,1.5274,1.5275,1.533,1.533,1.54,1.5401,0,0,0,0,0,0,0,0,0,0,0,1.5257,1.5258,1.5258,1.5275,1.533,1.533,1.54,1.5358,0,0,0,0,0,0,0,0,0,0,1.5305,1.529,1.5258,1.5258,1.5276,1.533,1.533,1.5356,1.5361,1.5375,0,1.5388,0,1.5396,1.5405,1.5406,0,0,0,1.5275,1.5286,1.5301,1.5259,1.5276,1.533,1.5305,1.5359,1.5364,1.5381,1.5389,1.5392,1.5397,1.5406,1.5406,1.5491,1.5491,0,0,1.5272,1.5267,1.5298,1.5305,1.5297,1.5303,1.5307,1.5362,1.537,1.5389,1.5393,1.5398,1.5406,1.5407,1.5491,1.5491,0,0,0,1.5263,1.5265,1.5279,1.5302,1.5312,1.5305,1.5309,1.5368,1.5373,1.5394,1.5399,1.5407,1.5408,1.549,1.5491,1.5507,0,0,0,1.5261,1.526,1.5277,1.5275,1.5311,1.534,1.5313,1.5369,1.5375,1.5398,1.5407,1.5408,1.549,1.549,1.5506,1.5516,0,0,0,1.5254,1.5259,1.5267,1.5275,1.5298,1.534,1.5348,1.537,1.5378,1.5406,1.5409,1.5489,1.549,1.5505,1.5514,1.5538,0,0,0,1.5244,1.528,1.5267,1.5309,1.5298,1.535,1.5347,1.5386,1.5412,1.5407,1.549,1.5491,1.5504,1.5512,1.5536,1.5557,1.5566,0,0,1.5286,1.5285,1.531,1.53,1.5353,1.5342,1.5397,1.5424,1.543,1.547,1.5472,1.5506,1.5514,1.5537,1.5613,1.5619,0,0,0,1.5322,1.534,1.5355,1.538,1.5402,1.5423,1.5443,1.5453,1.5487,1.545,1.5521,1.5526,1.554,1.555,1.5556,1.5569,1.5495,1.5495,1.5495,1.5374,1.5382,1.5424,1.5439,1.5463,1.5484,1.5505,1.5522,1.5521,1.5538,1.555,1.5595,1.5607,1.5611,1.5624,1.5561,1.5562,1.5562,1.5562,1.5438,1.5465,1.5465,1.5506,1.5514,1.5548,1.557,1.5569,1.5602,1.5586,1.5599,1.5581,1.5618,1.563,1.5563,1.5563,1.5563,1.5562,1.5562,1.5473,1.5488,1.5501,1.5539,1.5568,1.5581,1.5614,1.562,1.5625,1.5638,1.5652,1.5651,1.5652,1.5644,1.5644,1.5644,1.5644,1.5644,1.5645,1.5505,1.552,1.5547,1.5576,1.5594,1.5618,1.564,1.5658,1.5678,1.568,1.568,1.5678,1.562,1.5606,1.5647,1.5647,1.5646,1.5646,1.5646,1.5567,1.5555,1.5597,1.5615,1.565,1.5679,1.5686,1.5722,1.5737,1.5753,1.5749,1.5705,1.5703,1.5699,1.5687,1.5747,1.5747,1.5747,1.5747,1.5598,1.5598,1.5644,1.5673,1.5701,1.5713,1.5761,1.5779,1.5796,1.5806,1.5798,1.5783,1.5778,1.5779,1.5773,1.5762,1.584,1.584,1.584,1.5637,1.5641,1.5681,1.5698,1.5726,1.5751,1.5796,1.5829,1.5845,1.5844,1.5814,1.581,1.5786,1.5777,1.5775,1.5765,1.5745,0,0]}]]